When you browse on this site, cookies collect data to enhance your experience and personalize the content and advertising you see.
Visit our Privacy Policy to learn more. By continuing to use the site, you agree to this use of cookies and data.
  • In Hungary
  • List of Countries
  • For 7 days
  • Water Temperature
  • Satellite Maps
  • Weather Map
  • News
  • Weather Widgets
  • user-avatar
    Login

    Hourly Weather Garmisch-Partenkirchen

    Today, 21 April, Sunday

    Time Temperature Precipitation Wind Pressure Humidity
    00:00 +7°C° 0 mm 2 mps 680 mmHg 63%
    01:00 +6°C° 0 mm 2 mps 680 mmHg 60%
    02:00 +6°C° 0 mm 2 mps 679 mmHg 58%
    03:00 +5°C° 0 mm 2 mps 679 mmHg 56%
    04:00 +5°C° 0 mm 2 mps 679 mmHg 54%
    05:00 +6°C° 0 mm 2 mps 679 mmHg 53%
    06:00 +7°C° 0 mm 2 mps 679 mmHg 51%
    07:00 +8°C° 0 mm 2 mps 678 mmHg 50%
    08:00 +13°C° 0 mm 1 mps 679 mmHg 43%
    09:00 +16°C° 0 mm 1 mps 679 mmHg 36%
    10:00 +20°C° 0 mm 1 mps 679 mmHg 29%
    11:00 +21°C° 0 mm 1 mps 679 mmHg 28%
    12:00 +21°C° 0 mm 2 mps 679 mmHg 27%
    13:00 +21°C° 0 mm 2 mps 679 mmHg 27%
    14:00 +21°C° 0 mm 2 mps 678 mmHg 29%
    15:00 +20°C° 0 mm 2 mps 678 mmHg 31%
    16:00 +20°C° 0 mm 2 mps 677 mmHg 33%
    17:00 +17°C° 0 mm 2 mps 676 mmHg 44%
    18:00 +15°C° 0 mm 1 mps 676 mmHg 55%
    19:00 +12°C° 0 mm 1 mps 675 mmHg 66%
    20:00 +11°C° 0 mm 1 mps 675 mmHg 65%
    21:00 +10°C° 0 mm 1 mps 675 mmHg 64%
    22:00 +7°C° 0 mm 2 mps 675 mmHg 64%
    23:00 +7°C° 0 mm 2 mps 675 mmHg 62%

    Tomorrow, 22 April, Monday

    Time Temperature Precipitation Wind Pressure Humidity
    00:00 +6°C° 0 mm 2 mps 674 mmHg 61%
    01:00 +6°C° 0 mm 2 mps 674 mmHg 59%
    02:00 +6°C° 0 mm 2 mps 674 mmHg 62%
    03:00 +5°C° 0 mm 2 mps 673 mmHg 65%
    04:00 +5°C° 0 mm 2 mps 673 mmHg 67%
    05:00 +6°C° 0 mm 2 mps 673 mmHg 65%
    06:00 +7°C° 0 mm 2 mps 672 mmHg 62%
    07:00 +9°C° 0 mm 2 mps 672 mmHg 60%
    08:00 +13°C° 0 mm 1 mps 672 mmHg 51%
    09:00 +16°C° 0 mm 1 mps 672 mmHg 41%
    10:00 +20°C° 0 mm 1 mps 673 mmHg 31%
    11:00 +20°C° 0 mm 2 mps 672 mmHg 31%
    12:00 +20°C° 0 mm 2 mps 672 mmHg 30%
    13:00 +21°C° 0 mm 2 mps 671 mmHg 29%
    14:00 +21°C° 0 mm 2 mps 671 mmHg 32%
    15:00 +20°C° 0 mm 2 mps 670 mmHg 35%
    16:00 +20°C° 0 mm 3 mps 669 mmHg 38%
    17:00 +18°C° 0 mm 2 mps 668 mmHg 49%
    18:00 +15°C° 0 mm 2 mps 668 mmHg 59%
    19:00 +13°C° 0 mm 1 mps 667 mmHg 70%
    20:00 +10°C° 0 mm 2 mps 667 mmHg 71%
    21:00 +9°C° 0 mm 2 mps 667 mmHg 73%
    22:00 +8°C° 0 mm 2 mps 666 mmHg 75%
    23:00 +8°C° 0 mm 2 mps 666 mmHg 75%

    Day after tomorrow, 23 April, Tuesday

    Time Temperature Precipitation Wind Pressure Humidity
    00:00 +8°C° 0 mm 2 mps 666 mmHg 74%
    01:00 +8°C° 0 mm 2 mps 665 mmHg 73%
    02:00 +7°C° 0 mm 2 mps 665 mmHg 73%
    03:00 +7°C° 0 mm 2 mps 665 mmHg 72%
    04:00 +7°C° 0 mm 2 mps 664 mmHg 71%
    05:00 +8°C° 0 mm 2 mps 664 mmHg 69%
    06:00 +9°C° 0 mm 2 mps 664 mmHg 67%
    07:00 +9°C° 0 mm 2 mps 664 mmHg 64%
    08:00 +13°C° 0 mm 1 mps 664 mmHg 58%
    09:00 +15°C° 0 mm 1 mps 665 mmHg 53%
    10:00 +18°C° 0 mm 1 mps 665 mmHg 47%
    11:00 +19°C° 0 mm 1 mps 665 mmHg 44%
    12:00 +20°C° 0 mm 1 mps 665 mmHg 41%
    13:00 +21°C° 0 mm 1 mps 665 mmHg 38%
    14:00 +21°C° 0.1 mm 1 mps 665 mmHg 42%
    15:00 +20°C° 0.1 mm 1 mps 665 mmHg 45%
    16:00 +18°C° 0.1 mm 2 mps 664 mmHg 48%
    17:00 +16°C° 0.3 mm 1 mps 664 mmHg 58%
    18:00 +14°C° 0.3 mm 1 mps 664 mmHg 68%
    19:00 +12°C° 0.3 mm 1 mps 664 mmHg 78%
    20:00 +11°C° 0 mm 1 mps 664 mmHg 80%
    21:00 +9°C° 0 mm 2 mps 664 mmHg 81%
    22:00 +8°C° 0 mm 2 mps 665 mmHg 83%
    23:00 +8°C° 0 mm 2 mps 665 mmHg 82%

    24 April, Wednesday

    Time Temperature Precipitation Wind Pressure Humidity
    00:00 +8°C° 0 mm 2 mps 665 mmHg 82%
    01:00 +8°C° 0 mm 2 mps 665 mmHg 81%
    02:00 +8°C° 0.1 mm 2 mps 666 mmHg 80%
    03:00 +8°C° 0.1 mm 2 mps 666 mmHg 80%
    04:00 +8°C° 0.1 mm 2 mps 666 mmHg 80%
    05:00 +9°C° 0 mm 2 mps 667 mmHg 78%
    06:00 +10°C° 0 mm 2 mps 667 mmHg 76%
    07:00 +11°C° 0 mm 1 mps 668 mmHg 74%
    08:00 +14°C° 0 mm 2 mps 669 mmHg 64%
    09:00 +16°C° 0 mm 2 mps 670 mmHg 54%
    10:00 +18°C° 0 mm 2 mps 670 mmHg 45%
    11:00 +19°C° 0 mm 2 mps 670 mmHg 41%
    12:00 +20°C° 0 mm 2 mps 671 mmHg 37%
    13:00 +21°C° 0 mm 3 mps 671 mmHg 33%
    14:00 +20°C° 0 mm 3 mps 671 mmHg 34%
    15:00 +20°C° 0 mm 3 mps 671 mmHg 36%
    16:00 +20°C° 0 mm 3 mps 671 mmHg 37%
    17:00 +17°C° 0.8 mm 2 mps 671 mmHg 53%
    18:00 +14°C° 0.8 mm 2 mps 672 mmHg 69%
    19:00 +10°C° 0.8 mm 2 mps 672 mmHg 84%
    20:00 +9°C° 0.3 mm 2 mps 672 mmHg 87%
    21:00 +8°C° 0.3 mm 2 mps 673 mmHg 90%
    22:00 +8°C° 0.3 mm 1 mps 673 mmHg 93%
    23:00 +7°C° 0 mm 2 mps 673 mmHg 92%

    25 April, Thursday

    Time Temperature Precipitation Wind Pressure Humidity
    00:00 +6°C° 0 mm 2 mps 673 mmHg 91%
    01:00 +6°C° 0 mm 2 mps 673 mmHg 90%
    02:00 +6°C° 0 mm 2 mps 672 mmHg 89%
    03:00 +6°C° 0 mm 2 mps 672 mmHg 88%
    04:00 +5°C° 0 mm 2 mps 672 mmHg 87%
    05:00 +6°C° 0 mm 2 mps 672 mmHg 84%
    06:00 +7°C° 0 mm 2 mps 672 mmHg 80%
    07:00 +8°C° 0 mm 2 mps 673 mmHg 77%
    08:00 +12°C° 0 mm 2 mps 673 mmHg 66%
    09:00 +14°C° 0 mm 2 mps 674 mmHg 54%
    10:00 +17°C° 0 mm 2 mps 674 mmHg 42%
    11:00 +18°C° 0 mm 2 mps 674 mmHg 40%
    12:00 +19°C° 0 mm 2 mps 674 mmHg 37%
    13:00 +20°C° 0 mm 2 mps 674 mmHg 34%
    14:00 +20°C° 0 mm 2 mps 674 mmHg 34%
    15:00 +20°C° 0 mm 2 mps 674 mmHg 34%
    16:00 +20°C° 0 mm 2 mps 673 mmHg 34%
    17:00 +18°C° 0 mm 2 mps 673 mmHg 44%
    18:00 +15°C° 0 mm 2 mps 673 mmHg 53%
    19:00 +13°C° 0 mm 1 mps 673 mmHg 63%
    20:00 +12°C° 0 mm 1 mps 673 mmHg 68%
    21:00 +11°C° 0 mm 1 mps 673 mmHg 73%
    22:00 +9°C° 0 mm 2 mps 673 mmHg 78%
    23:00 +10°C° 0 mm 1 mps 674 mmHg 83%

    26 April, Friday

    Time Temperature Precipitation Wind Pressure Humidity
    00:00 +9°C° 0 mm 1 mps 674 mmHg 88%
    01:00 +8°C° 0 mm 1 mps 674 mmHg 93%
    02:00 +8°C° 0.3 mm 1 mps 674 mmHg 94%
    03:00 +8°C° 0.3 mm 1 mps 674 mmHg 95%
    04:00 +7°C° 0.3 mm 1 mps 673 mmHg 96%
    05:00 +7°C° 0.5 mm 1 mps 673 mmHg 95%
    06:00 +7°C° 0.5 mm 1 mps 673 mmHg 94%
    07:00 +7°C° 0.5 mm 1 mps 673 mmHg 93%
    08:00 +7°C° 1.2 mm 1 mps 673 mmHg 93%
    09:00 +6°C° 1.2 mm 2 mps 673 mmHg 93%
    10:00 +5°C° 1.2 mm 2 mps 673 mmHg 93%
    11:00 +6°C° 0.8 mm 2 mps 674 mmHg 90%
    12:00 +6°C° 0.8 mm 2 mps 674 mmHg 86%
    13:00 +5°C° 0.8 mm 3 mps 674 mmHg 82%
    14:00 +6°C° 0.8 mm 2 mps 675 mmHg 84%
    15:00 +5°C° 0.8 mm 2 mps 675 mmHg 86%
    16:00 +6°C° 0.8 mm 1 mps 675 mmHg 87%
    17:00 +5°C° 0.8 mm 1 mps 675 mmHg 89%
    18:00 +5°C° 0.8 mm 1 mps 676 mmHg 91%
    19:00 +4°C° 0.8 mm 1 mps 676 mmHg 94%
    20:00 +4°C° 0.4 mm 1 mps 677 mmHg 94%
    21:00 +3°C° 0.4 mm 1 mps 677 mmHg 94%
    22:00 +3°C° 0.4 mm 1 mps 678 mmHg 95%
    23:00 +3°C° 0.1 mm 1 mps 678 mmHg 95%
    Show more